[[{"header":{"parameterUnit":"m.s-1","parameterCategory":1,"la1":30.2991,"la2":30.254,"lo1":-89.0895,"lo2":-89.0444,"dy":0.0017,"dx":0.0017,"nx":28,"ny":28,"refTime":"2024-02-15T09:00:00:Z","depth":0,"parameterNumber":2,"parameterNumberName":"U-component_of_WINDS"},"data":[0,0,0,0,0,0,0,0,0,0,0,0,0,0,0,0,0,0,0,0,0,0,0,0,0,0,0,0,0,0,0,0,0,0,0,0,0,0,0,0,0,0,0,0,0,0,0,0,0,0,0,0,0,0,0,0,0,0,-0.8288,-0.8287,0,-0.8209,-0.8208,-0.8207,-0.8158,-0.8157,-0.8157,-0.8157,-0.8074,-0.8072,-0.807,0,0,0,0,0,0,0,0,0,0,0,0,0,-0.8395,-0.8393,-0.8288,-0.8287,-0.8286,-0.8209,-0.8208,-0.8207,-0.8158,-0.8157,-0.8157,-0.8157,-0.8074,-0.8072,-0.807,0,0,0,0,0,0,0,0,0,0,0,0,0,-0.8335,-0.8392,-0.8288,-0.8252,-0.8248,-0.8209,-0.8208,-0.8207,-0.8158,-0.8157,-0.8157,-0.8156,-0.8075,-0.8072,-0.8069,-0.806,0,0,-0.806,-0.8059,0,0,0,0,0,0,0,0,-0.8339,-0.8331,-0.8259,-0.8255,-0.825,-0.8193,-0.8215,-0.8157,-0.8158,-0.8192,-0.8157,-0.8156,-0.8114,-0.8107,-0.8093,-0.8056,-0.8052,-0.806,-0.8058,-0.8057,-0.8056,0,0,0,0,0,0,0,-0.8343,-0.8334,-0.8257,-0.8258,-0.8252,-0.8239,-0.8231,-0.8204,-0.8156,-0.8189,-0.8185,-0.8177,-0.8111,-0.8096,-0.8091,-0.8051,-0.806,-0.8058,-0.8056,-0.8055,-0.8001,-0.8002,0,0,0,0,0,0,-0.8353,-0.8338,-0.8259,-0.8254,-0.8294,-0.8238,-0.8228,-0.8212,-0.8156,-0.8147,-0.8177,-0.8175,-0.8102,-0.8095,-0.8088,-0.8073,-0.8057,-0.8054,-0.8053,-0.8001,-0.8001,-0.8002,0,0,0,0,0,0,-0.8355,-0.8346,-0.8262,-0.8295,-0.8284,-0.8237,-0.8218,-0.821,-0.8195,-0.8147,-0.8138,-0.8171,-0.8101,-0.8092,-0.8067,-0.807,-0.8053,-0.805,-0.8,-0.8001,-0.8001,-0.8043,0,0,0,0,0,0,-0.8359,-0.8348,-0.8344,-0.8296,-0.8282,-0.8244,-0.8219,-0.8209,-0.8191,-0.8187,-0.8139,-0.8131,-0.81,-0.8072,-0.8064,-0.8065,-0.8048,-0.8,-0.8001,-0.8001,-0.8042,-0.8045,-0.8049,0,0,0,0,0,-0.8363,-0.8358,-0.8344,-0.8335,-0.8276,-0.8244,-0.8236,-0.8201,-0.8191,-0.8187,-0.8156,-0.8132,-0.8071,-0.807,-0.8061,-0.8061,-0.8,-0.8001,-0.8001,-0.804,-0.8045,-0.8048,0,0,0,0,0,0,-0.8407,-0.8351,-0.8335,-0.8315,-0.8285,-0.8236,-0.8229,-0.8207,-0.8179,-0.8176,-0.8134,-0.8123,-0.8103,-0.8079,-0.8079,-0.8049,-0.8032,-0.8031,-0.8065,-0.8069,-0.8072,-0.8079,-0.8046,0,0,0,0,0,-0.8415,-0.8394,-0.8346,-0.8332,-0.8318,-0.8277,-0.8261,-0.8237,-0.8204,-0.8191,-0.8158,-0.8126,-0.8099,-0.8083,-0.8055,-0.8038,-0.8027,-0.8033,-0.8037,-0.804,-0.804,-0.8029,-0.8031,-0.8004,-0.8004,-0.8004,0,0,-0.843,-0.8397,-0.8386,-0.8341,-0.8314,-0.8293,-0.8266,-0.8244,-0.8228,-0.8187,-0.8162,-0.8137,-0.8098,-0.8077,-0.8066,-0.8057,-0.8045,-0.8041,-0.8044,-0.8042,-0.803,-0.8033,-0.8035,-0.8005,-0.8005,-0.8004,0,0,-0.8447,-0.842,-0.8406,-0.8381,-0.8342,-0.8314,-0.8311,-0.8265,-0.8247,-0.8221,-0.819,-0.817,-0.8125,-0.8099,-0.808,-0.8087,-0.8065,-0.808,-0.8098,-0.8088,-0.809,-0.8092,-0.8095,-0.8096,-0.8079,-0.808,-0.808,0,-0.8471,-0.8438,-0.8402,-0.8382,-0.8363,-0.8326,-0.8312,-0.8288,-0.8242,-0.823,-0.822,-0.8163,-0.8135,-0.8107,-0.8109,-0.8095,-0.809,-0.8085,-0.8093,-0.8094,-0.8095,-0.8098,-0.8099,-0.8082,-0.8081,-0.8081,-0.8081,0,-0.847,-0.8447,-0.8441,-0.8399,-0.8379,-0.8362,-0.8323,-0.8307,-0.8284,-0.8258,-0.8232,-0.8196,-0.8161,-0.8153,-0.813,-0.8122,-0.8118,-0.8101,-0.8084,-0.81,-0.8102,-0.8103,-0.8085,-0.8084,-0.8083,-0.8083,0,0,-0.8513,-0.8451,-0.8449,-0.843,-0.8384,-0.8366,-0.8347,-0.8314,-0.8301,-0.827,-0.8254,-0.8217,-0.8201,-0.818,-0.8154,-0.8145,-0.8154,-0.8129,-0.8127,-0.8135,-0.8143,-0.8157,-0.8158,-0.8138,-0.8138,-0.8138,-0.8146,0,-0.8524,-0.849,-0.8456,-0.8434,-0.8413,-0.8377,-0.836,-0.833,-0.8305,-0.8283,-0.8254,-0.8229,-0.821,-0.8196,-0.8186,-0.8155,-0.8155,-0.8154,-0.8122,-0.8122,-0.8134,-0.8159,-0.8173,-0.8182,-0.8147,-0.8147,-0.8147,0,-0.8532,-0.8504,-0.848,-0.8437,-0.8426,-0.8413,-0.838,-0.8359,-0.8324,-0.8306,-0.8282,-0.8255,-0.8233,-0.8219,-0.8188,-0.8188,-0.8173,-0.8156,-0.8155,-0.8151,-0.8136,-0.8156,-0.8184,-0.8186,-0.8147,-0.8147,-0.8147,0,-0.8567,-0.8523,-0.8503,-0.8487,-0.8436,-0.8427,-0.8405,-0.837,-0.8352,-0.8323,-0.8311,-0.8279,-0.8262,-0.8238,-0.8203,-0.8195,-0.8176,-0.8158,-0.816,-0.8161,-0.8158,-0.8159,-0.8185,-0.8148,-0.8148,-0.8148,-0.8148,0,-0.8583,-0.857,-0.8518,-0.8506,-0.849,-0.8451,-0.8436,-0.8411,-0.838,-0.8362,-0.8328,-0.8311,-0.8266,-0.8244,-0.8216,-0.8195,-0.8187,-0.8172,-0.8165,-0.8175,-0.8177,-0.8165,-0.8164,-0.8148,-0.8148,-0.8148,-0.8148,0,-0.862,-0.8585,-0.8561,-0.8514,-0.8502,-0.8492,-0.8452,-0.8439,-0.8411,-0.8389,-0.8381,-0.8338,-0.831,-0.8273,-0.8233,-0.8214,-0.8197,-0.8185,-0.8209,-0.8205,-0.821,-0.821,-0.8229,-0.823,-0.8192,-0.8192,-0.8193,0,-0.8633,-0.8622,-0.8575,-0.8561,-0.854,-0.8517,-0.8499,-0.8461,-0.8443,-0.8403,-0.8394,-0.8364,-0.8338,-0.8295,-0.826,-0.8229,-0.8217,-0.8225,-0.8212,-0.8223,-0.8218,-0.8219,-0.8218,-0.8229,-0.823,-0.823,-0.8231,0,-0.866,-0.8643,-0.8619,-0.8589,-0.8568,-0.8542,-0.8515,-0.8505,-0.846,-0.8442,-0.8414,-0.8394,-0.8353,-0.8324,-0.8289,-0.8265,-0.8241,-0.8235,-0.8234,-0.8245,-0.826,-0.8253,-0.8219,-0.8235,-0.8235,-0.8234,-0.8234,-0.8234,-0.8686,-0.8675,-0.864,-0.8614,-0.8589,-0.8564,-0.8549,-0.852,-0.8496,-0.8461,-0.8439,-0.8412,-0.8377,-0.8328,-0.8305,-0.8283,-0.8273,-0.8272,-0.8271,-0.8272,-0.8276,-0.8263,-0.8276,-0.8276,-0.8276,-0.8276,-0.8276,0,-0.8712,-0.8688,-0.8664,-0.8627,-0.8607,-0.8586,-0.8554,-0.8538,-0.8515,-0.8485,-0.846,-0.8427,-0.8399,-0.8361,-0.8329,-0.8319,-0.8307,-0.8312,-0.8312,-0.8308,-0.8286,-0.829,-0.8322,-0.8322,-0.8322,-0.8322,-0.8322,-0.8322,-0.8723,-0.8703,-0.8682,-0.865,-0.8625,-0.8599,-0.8583,-0.856,-0.8535,-0.8501,-0.8477,-0.8453,-0.842,-0.8385,-0.8358,-0.8347,-0.8337,-0.8346,-0.8333,-0.8313,-0.8309,-0.8305,-0.8309,-0.8344,-0.8344,-0.8356,-0.8356,-0.8356]},{"header":{"parameterUnit":"m.s-1","parameterCategory":1,"la1":30.2991,"la2":30.254,"lo1":-89.0895,"lo2":-89.0444,"dy":0.0017,"dx":0.0017,"nx":28,"ny":28,"refTime":"2024-02-15T09:00:00:Z","depth":0,"parameterNumber":3,"parameterNumberName":"V-component_of_WINDS"},"data":[0,0,0,0,0,0,0,0,0,0,0,0,0,0,0,0,0,0,0,0,0,0,0,0,0,0,0,0,0,0,0,0,0,0,0,0,0,0,0,0,0,0,0,0,0,0,0,0,0,0,0,0,0,0,0,0,0,0,0.8591,0.8591,0,0.8635,0.8636,0.8636,0.8623,0.8622,0.8621,0.862,0.8664,0.8666,0.8668,0,0,0,0,0,0,0,0,0,0,0,0,0,0.8492,0.8494,0.8591,0.8591,0.8592,0.8635,0.8636,0.8637,0.8623,0.8622,0.8621,0.862,0.8664,0.8666,0.8668,0,0,0,0,0,0,0,0,0,0,0,0,0,0.8535,0.8494,0.8591,0.859,0.8591,0.8635,0.8636,0.8637,0.8623,0.8622,0.8621,0.8619,0.8663,0.8666,0.8669,0.8715,0,0,0.8678,0.8679,0,0,0,0,0,0,0,0,0.8533,0.8539,0.859,0.8591,0.8591,0.8622,0.8617,0.8663,0.8624,0.8611,0.862,0.8619,0.8651,0.8655,0.8667,0.8718,0.8719,0.8678,0.868,0.8682,0.8682,0,0,0,0,0,0,0,0.853,0.8537,0.8608,0.8591,0.8591,0.8587,0.8592,0.8626,0.8638,0.8612,0.8611,0.8617,0.8651,0.8664,0.8668,0.872,0.8678,0.8681,0.8683,0.8684,0.881,0.8812,0,0,0,0,0,0,0.8527,0.8535,0.8607,0.861,0.8558,0.859,0.8596,0.8614,0.8638,0.864,0.8618,0.8616,0.8659,0.8664,0.8669,0.8725,0.8682,0.8684,0.8686,0.8809,0.8811,0.8812,0,0,0,0,0,0,0.8525,0.8533,0.8605,0.8572,0.8581,0.8594,0.8614,0.8615,0.8628,0.8642,0.8644,0.8628,0.8658,0.8665,0.8704,0.8726,0.8686,0.8689,0.8807,0.8809,0.8812,0.8837,0,0,0,0,0,0,0.8522,0.8533,0.8551,0.8572,0.8583,0.864,0.8615,0.8617,0.8633,0.8631,0.8653,0.8655,0.8658,0.8699,0.8707,0.873,0.8691,0.8805,0.8808,0.8811,0.8834,0.884,0.8845,0,0,0,0,0,0.8518,0.8556,0.8552,0.8561,0.8606,0.8641,0.8647,0.865,0.8635,0.8653,0.8663,0.8654,0.8722,0.8704,0.8712,0.8736,0.8804,0.8807,0.8811,0.8832,0.8839,0.8844,0,0,0,0,0,0,0.8537,0.8559,0.8555,0.8601,0.8619,0.8639,0.8662,0.8657,0.868,0.8677,0.8679,0.8684,0.8724,0.8734,0.8712,0.8782,0.8761,0.8766,0.8774,0.8781,0.8786,0.8783,0.8694,0,0,0,0,0,0.8546,0.8574,0.8592,0.863,0.864,0.865,0.8665,0.8666,0.8685,0.8692,0.8704,0.8723,0.8748,0.8765,0.8789,0.8835,0.8839,0.8856,0.8861,0.8865,0.887,0.8894,0.8901,0.8824,0.8824,0.8824,0,0,0.8566,0.8582,0.8599,0.8635,0.8649,0.8677,0.8656,0.8687,0.8707,0.8697,0.8735,0.8744,0.8764,0.8807,0.8827,0.8816,0.8892,0.887,0.8873,0.8875,0.8898,0.8906,0.8912,0.8826,0.8826,0.8825,0,0,0.8616,0.8631,0.8665,0.868,0.8702,0.8708,0.8716,0.8736,0.8742,0.8781,0.8773,0.8797,0.8841,0.8856,0.8869,0.8924,0.8917,0.8931,0.8959,0.8982,0.8989,0.8994,0.9013,0.902,0.8936,0.8936,0.8936,0,0.8638,0.868,0.8683,0.8714,0.8729,0.8721,0.8755,0.8769,0.8798,0.8808,0.8797,0.8851,0.8865,0.891,0.8924,0.8935,0.8943,0.8929,0.8988,0.8993,0.8998,0.9016,0.9024,0.8938,0.8937,0.8937,0.8937,0,0.8706,0.8735,0.8759,0.8788,0.8806,0.8838,0.8844,0.8862,0.8861,0.8868,0.8906,0.8922,0.8949,0.896,0.8959,0.9005,0.8998,0.8987,0.8966,0.9007,0.9024,0.9031,0.894,0.8939,0.8939,0.8938,0,0,0.8769,0.8798,0.8807,0.882,0.8843,0.8865,0.8896,0.8923,0.8938,0.8958,0.8984,0.9021,0.9011,0.9026,0.9026,0.9047,0.9089,0.9033,0.9034,0.9043,0.914,0.9148,0.9156,0.9084,0.9085,0.9087,0.9138,0,0.8821,0.8877,0.888,0.893,0.8957,0.8949,0.8976,0.8993,0.9,0.9023,0.9031,0.9057,0.9042,0.905,0.9071,0.9079,0.9108,0.9076,0.9107,0.9109,0.9103,0.9165,0.9174,0.9222,0.9145,0.9146,0.9147,0,0.889,0.8912,0.8965,0.8984,0.8995,0.902,0.9044,0.9066,0.9085,0.9088,0.9105,0.9102,0.9133,0.9111,0.9153,0.9131,0.9144,0.915,0.9152,0.9155,0.913,0.917,0.9237,0.9245,0.9158,0.9157,0.9156,0,0.893,0.8973,0.9011,0.9021,0.9045,0.9062,0.9072,0.9089,0.9105,0.9126,0.9136,0.916,0.9173,0.9192,0.9195,0.9179,0.9237,0.9216,0.9241,0.9241,0.9253,0.9253,0.9324,0.9262,0.9262,0.9262,0.9262,0,0.8988,0.9021,0.9029,0.9052,0.9088,0.909,0.9126,0.9135,0.915,0.9174,0.9168,0.9191,0.9194,0.9217,0.922,0.9254,0.926,0.9263,0.9264,0.9264,0.9263,0.9272,0.9269,0.9264,0.9263,0.9263,0.9263,0,0.904,0.9047,0.9087,0.9105,0.9111,0.9136,0.9152,0.9173,0.9179,0.921,0.9217,0.9226,0.9253,0.9258,0.929,0.9291,0.9332,0.9329,0.9326,0.9326,0.935,0.9348,0.943,0.944,0.9372,0.9372,0.9373,0,0.9076,0.9101,0.9122,0.9138,0.9149,0.9175,0.9191,0.9194,0.921,0.9233,0.9251,0.9277,0.9298,0.9341,0.935,0.9374,0.9372,0.9399,0.9375,0.9374,0.9372,0.937,0.9372,0.9403,0.9404,0.9405,0.9405,0,0.914,0.9142,0.9165,0.919,0.9209,0.9228,0.9247,0.926,0.9265,0.9284,0.9311,0.9327,0.9359,0.9385,0.9408,0.9418,0.9412,0.9412,0.9419,0.942,0.9417,0.9418,0.9338,0.9411,0.941,0.941,0.9409,0.9409,0.9185,0.9207,0.9225,0.9251,0.9265,0.9282,0.9303,0.9311,0.9334,0.9361,0.9361,0.9391,0.9407,0.9438,0.945,0.9472,0.9464,0.9474,0.9476,0.9479,0.9481,0.9413,0.9477,0.9477,0.9476,0.9476,0.9476,0,0.9248,0.9259,0.9283,0.9309,0.9329,0.9322,0.9342,0.9359,0.9385,0.9402,0.9423,0.9453,0.9478,0.9489,0.9513,0.9529,0.9527,0.9535,0.9534,0.9536,0.9488,0.9479,0.9537,0.9537,0.9537,0.9537,0.9537,0.9537,0.9283,0.9319,0.9323,0.9366,0.9376,0.9406,0.9417,0.9433,0.9446,0.9481,0.9501,0.9509,0.9523,0.9548,0.957,0.9572,0.9581,0.9591,0.9592,0.9546,0.954,0.9534,0.9526,0.9593,0.9593,0.9639,0.9639,0.9639]}]]